Find NTS

NORAD ID: 32784 Int'l Des: 2008-021 Owner: UTIAS/COMDEV Country: CA operational
LEOCIRCULARRETROGRADESSO

現在のビュー

3D地球を読み込み中...

About NTS

NTS (NORAD 32784) is a satellite launched Apr 28, 2008 by UTIAS/COMDEV of CA. It operates in LEO, CIRCULAR, RETROGRADE, SSO orbit with a mass of 6.00 kg.

次回通過

Passes for default location (London). Set your location on the main map for personalized predictions.

高度履歴

Loading altitude history...

軌道要素

1 32784U 08021B 26194.50672739 .00001969 00000-0 14960-3 0 9994
2 32784 97.9098 174.4982 0011991 48.1563 312.0684 15.03350999988082
Epoch: Jul 13, 2026 • Age: 14 hours

現在のステータス

高度 563.8 km
遠地点 / 近地点 N/A
速度 7.58 km/s
衛星直下点 7.89°N, 38.69°E
打ち上げ日 Apr 28, 2008
運用期間 18.2 years
タイプ other

技術仕様

分類 Payload
質量 6.00 kg
乾燥質量 6.00 kg
総質量 6.00 kg
長さ 0.20 m
直径 0.20 m
スパン 1.00 m
形状 Box + Ant + Ant
製造者 UTIAS
バスタイプ GNB
フェーズステータス In Orbit
所有者/国 UTIAS/COMDEV/CA

Most Searched